Probability
21 18 9 2 0 0 0 0 0 0 0 0 0 0 0 0 0 0 0 0 0 0 0 0 0 0 0 0 0 0 0 0 0 0 0 0 0 0 0 0 0 0 0 0 0 0 0 0 0
10 9 5 1 0 0 0 0 0 0 0 0 0 0 0 0 0 0 0 0 0 0 0 0 0 0 0 0 0 0 0 0 0 0 0 0 0 0 0 0 0 0 0 0 0 0 0 0 0
1 2 1 0 0 0 0 0 0 0 0 0 0 0 0 0 0 0 0 0 0 0 0 0 0 0 0 0 0 0 0 0 0 0 0 0 0 0 0 0 0 0 0 0 0 0 0 0 0
0 0 0 0 0 0 0 0 0 0 0 0 0 0 0 0 0 0 0 0 0 0 0 0 0 0 0 0 0 0 0 0 0 0 0 0 0 0 0 0 0 0 0 0 0 0 0 0 0
0 0 0 0 0 0 0 0 0 0 0 0 0 0 0 0 0 0 0 0 0 0 0 0 0 0 0 0 0 0 0 0 0 0 0 0 0 0 0 0 0 0 0 0 0 0 0 0 0
0 0 0 0 0 0 0 0 0 0 0 0 0 0 0 0 0 0 0 0 0 0 0 0 0 0 0 0 0 0 0 0 0 0 0 0 0 0 0 0 0 0 0 0 0 0 0 0 0
0 0 0 0 0 0 0 0 0 0 0 0 0 0 0 0 0 0 0 0 0 0 0 0 0 0 0 0 0 0 0 0 0 0 0 0 0 0 0 0 0 0 0 0 0 0 0 0 0
0 0 0 0 0 0 0 0 0 0 0 0 0 0 0 0 0 0 0 0 0 0 0 0 0 0 0 0 0 0 0 0 0 0 0 0 0 0 0 0 0 0 0 0 0 0 0 0 0
0 0 0 0 0 0 0 0 0 0 0 0 0 0 0 0 0 0 0 0 0 0 0 0 0 0 0 0 0 0 0 0 0 0 0 0 0 0 0 0 0 0 0 0 0 0 0 0 0
0 0 0 0 0 0 0 0 0 0 0 0 0 0 1 1 0 0 0 0 0 0 0 0 0 0 0 0 0 0 0 0 0 0 0 0 0 0 0 0 0 0 0 0 0 0 0 0 0
0 0 0 0 0 0 0 0 0 0 0 0 0 1 3 4 2 1 1 0 0 0 0 0 0 0 0 0 0 0 0 0 0 0 0 0 0 0 0 0 0 0 0 0 0 0 0 0 0
0 0 0 0 0 0 0 0 0 0 0 0 0 1 4 6 4 2 1 0 0 0 0 0 0 0 0 0 0 0 0 0 0 0 0 0 0 0 0 0 0 0 0 0 0 0 0 0 0
0 0 0 0 0 0 0 0 0 0 0 0 0 1 2 3 2 1 1 0 0 0 0 0 0 1 1 0 0 0 0 0 0 0 0 0 0 0 0 0 0 0 0 0 0 0 0 0 0
0 0 0 0 0 0 0 0 0 0 0 0 0 0 0 0 0 0 0 0 0 0 0 0 1 2 3 2 1 1 1 1 2 2 1 0 0 0 0 0 0 0 0 0 0 0 0 0 0
0 0 0 0 0 0 0 0 0 0 0 0 0 0 0 0 0 0 0 0 0 0 0 0 1 2 4 5 4 2 2 3 6 6 3 1 1 0 0 0 0 0 0 0 0 0 0 0 0
0 0 0 0 0 0 0 0 0 0 0 0 0 0 0 0 0 0 0 0 0 0 0 0 0 1 2 3 4 3 2 4 8 9 6 4 3 2 0 0 1 1 0 0 0 0 0 0 0
0 0 0 0 0 0 0 0 0 0 0 0 0 0 0 0 0 0 0 0 0 0 0 0 0 0 0 1 3 3 3 5 8 11 10 9 7 5 4 3 3 2 1 0 0 0 0 0 0
0 0 0 0 0 0 0 0 0 0 0 0 0 0 0 0 0 0 0 0 0 0 0 0 0 0 0 1 3 4 4 6 11 16 18 17 15 12 11 10 7 4 3 1 0 1 0 0 0
0 0 0 0 0 0 0 0 0 0 0 0 0 0 0 0 0 0 0 0 0 0 0 0 0 0 1 1 2 3 4 8 15 22 26 27 26 23 20 17 12 9 6 3 3 4 3 1 0
0 0 0 0 0 0 0 0 0 0 0 0 0 0 0 0 0 0 0 0 0 0 0 0 0 0 1 2 2 3 5 11 17 25 31 33 34 33 28 24 20 17 13 10 9 9 7 3 1
0 0 0 0 0 0 0 0 0 0 0 0 0 0 0 0 0 0 0 0 0 0 0 0 0 1 2 3 4 4 6 11 17 25 32 34 35 39 38 34 28 24 22 20 16 12 9 6 4
0 0 0 0 0 0 0 0 0 0 0 0 0 0 0 0 0 0 0 0 0 0 0 0 1 2 3 5 6 6 7 9 13 21 28 31 33 39 42 39 35 31 29 25 20 15 12 9 8
0 0 0 0 0 0 0 0 0 0 0 0 0 0 0 0 0 0 0 0 0 0 0 0 1 2 3 4 5 6 7 9 11 15 20 26 30 33 35 36 37 36 32 26 21 17 14 12 11
0 0 0 0 0 0 0 0 0 0 0 0 0 0 0 0 0 0 0 0 0 0 0 0 1 1 1 1 2 3 5 7 9 10 13 20 25 25 24 28 32 33 29 24 20 17 16 14 11
0 0 0 0 0 0 0 0 0 0 0 0 0 0 0 0 0 0 0 0 0 0 0 0 0 0 0 0 0 0 2 4 6 8 10 15 20 21 19 21 24 25 23 21 20 19 18 15 11
0 0 0 0 0 0 0 0 0 0 0 0 0 0 0 0 0 0 0 0 0 0 0 0 0 0 0 0 0 0 0 1 2 4 7 12 17 19 19 19 20 20 19 19 20 20 18 14 12
0 0 0 0 0 0 0 0 0 0 0 0 0 0 0 0 0 0 0 0 0 0 0 0 0 0 0 0 0 0 0 0 0 2 4 6 9 12 14 16 18 18 19 19 19 18 15 11 8
0 0 0 0 0 0 0 0 0 0 0 0 0 0 0 0 0 0 0 0 0 0 0 0 0 0 0 0 0 0 0 0 0 0 1 1 2 3 5 8 10 13 15 16 14 12 9 5 3
0 0 0 0 0 0 0 0 0 0 0 0 0 0 0 0 0 0 0 0 0 0 0 0 0 0 0 0 0 0 0 0 0 0 0 0 0 0 0 1 3 5 7 8 7 5 3 1 0
0 0 0 0 0 0 0 0 0 0 0 0 0 0 0 0 0 0 0 0 0 0 0 0 0 0 0 0 0 0 0 0 0 0 0 0 0 0 0 0 0 1 1 2 2 1 1 0 0
Wind_Speed
7 7 5 4 3 6 12 9 6 5 5 6 4 2 3 5 5 6 5 10 13 15 14 14 12 12 11 10 9 9 9 8 8 7 7 6 5 4 3 3 3 3 2 2 3 3 4 4 4
5 6 5 4 4 10 11 8 9 9 7 4 4 4 4 6 6 6 7 10 14 14 13 13 13 12 11 10 9 8 8 8 7 7 6 6 5 5 4 3 3 2 2 2 3 3 4 4 4
6 5 3 2 8 10 10 7 8 8 6 4 5 5 6 6 5 5 8 12 13 12 11 12 13 12 11 10 9 8 8 7 7 7 6 6 6 5 4 4 3 2 2 2 2 3 4 4 4
4 4 2 5 10 9 6 5 5 5 6 8 6 7 7 7 4 7 12 13 13 11 10 12 12 11 10 10 9 9 8 8 7 7 6 6 6 5 5 4 4 3 3 3 3 3 4 4 4
3 2 4 7 8 7 6 5 5 7 8 9 9 8 9 7 7 10 11 11 12 11 10 12 11 11 10 9 9 9 8 8 8 7 7 6 6 5 5 5 4 4 3 3 3 3 3 4 4
2 1 4 6 8 7 7 6 5 8 9 8 8 8 8 7 7 8 9 8 9 8 8 10 11 9 9 9 9 9 9 9 9 9 8 7 6 6 6 5 5 5 4 4 4 4 4 4 4
1 2 4 5 5 6 7 6 8 8 10 11 8 7 7 8 6 6 6 5 5 6 7 7 10 11 10 8 8 9 9 9 10 9 9 8 7 7 6 6 5 5 5 4 4 4 5 4 4
2 3 5 4 5 6 5 7 8 10 10 10 10 8 7 8 7 6 5 4 3 5 6 6 6 6 8 10 11 9 9 10 10 10 10 9 8 8 8 8 7 6 5 5 5 5 5 5 4
3 3 4 4 4 6 7 8 8 8 12 14 14 12 9 10 7 6 4 3 2 3 4 5 6 5 6 6 6 9 10 11 10 11 11 10 10 10 10 8 8 6 5 5 5 5 5 5 6
1 2 6 6 6 9 13 12 8 7 14 14 14 13 10 8 7 6 6 4 3 2 3 5 6 6 7 6 6 6 7 8 9 8 10 9 8 5 5 9 8 6 6 6 5 5 7 9 7
5 7 8 8 8 9 10 15 16 8 12 13 12 11 11 11 11 10 9 9 8 7 6 6 6 7 7 6 6 5 4 5 7 9 9 7 6 5 6 6 9 9 9 9 9 9 8 7 4
9 11 8 7 7 8 9 9 14 18 11 11 12 13 13 14 13 12 11 11 10 10 10 9 8 7 8 7 6 6 6 5 6 7 9 6 5 6 6 5 5 5 5 5 6 5 6 7 7
9 10 13 16 18 18 18 17 15 15 11 11 12 14 15 14 13 12 11 11 11 11 11 10 9 9 7 7 6 7 7 7 7 6 7 8 6 7 7 6 5 6 6 6 6 7 6 6 7
10 12 11 10 10 10 16 14 10 11 10 11 13 13 13 13 12 12 12 11 11 10 11 10 10 9 8 6 5 5 6 6 7 6 9 9 7 7 7 7 6 6 6 6 6 8 6 6 6
11 12 11 8 7 7 7 13 11 10 8 10 11 11 12 12 11 12 11 10 10 10 10 10 9 9 8 7 7 5 5 6 6 7 8 9 8 9 8 7 7 7 7 8 7 7 6 6 6
6 6 5 8 5 3 1 7 9 8 8 10 10 10 10 10 11 11 11 10 10 10 10 9 8 9 9 7 6 5 5 6 6 6 6 9 9 10 8 7 7 7 6 6 6 6 6 7 7
4 4 2 6 8 4 7 8 7 8 9 10 11 11 11 11 12 12 12 11 10 10 10 10 9 9 9 9 7 6 6 6 5 5 5 7 9 9 8 7 7 8 6 6 6 7 7 6 6
2 3 0 5 7 8 10 9 7 8 10 11 11 12 12 13 14 13 13 11 10 10 10 10 9 9 9 7 7 6 5 5 5 6 6 8 7 9 8 7 8 7 6 6 6 6 6 5 5
4 4 0 5 4 5 9 8 7 8 11 12 12 13 13 14 14 13 12 11 11 11 11 10 10 9 8 6 6 6 5 5 5 6 8 9 10 10 9 7 8 7 7 7 8 6 7 6 6
3 4 3 6 5 4 8 7 6 7 10 12 13 14 14 15 15 15 14 13 12 12 11 11 10 10 9 6 7 6 7 6 6 5 7 10 11 11 10 11 9 8 7 8 8 6 4 4 4
1 3 1 4 6 5 5 5 5 6 8 11 13 13 14 15 17 17 16 14 14 12 12 10 11 10 9 9 6 6 6 6 5 5 5 7 9 11 11 12 11 10 9 7 8 9 9 6 5
1 3 1 5 7 4 4 3 6 6 9 13 14 15 15 16 16 16 16 15 14 13 11 11 10 10 9 8 7 8 6 7 6 5 5 5 6 8 10 11 11 10 9 9 10 10 8 8 6
4 3 3 6 5 5 0 4 6 6 11 14 15 15 15 15 15 16 15 14 13 13 11 10 9 9 8 7 7 7 6 6 5 5 5 4 4 5 6 8 8 9 8 9 10 10 10 9 8
1 4 5 5 6 4 3 4 5 8 12 13 14 15 15 15 14 14 14 14 13 12 11 10 9 9 9 8 7 6 7 6 6 5 4 3 2 2 4 5 6 7 7 8 9 10 12 10 10
3 6 5 6 5 3 2 1 5 8 9 10 12 13 13 13 13 13 15 14 14 14 13 12 11 10 10 9 8 7 7 6 6 5 4 3 1 1 2 2 4 5 6 6 7 8 9 10 10
3 5 5 5 1 4 2 1 5 5 6 8 9 11 12 13 13 13 13 13 13 13 13 12 12 11 11 9 8 8 8 5 4 5 5 4 3 2 1 0 1 2 3 4 4 5 6 7 9
2 2 4 4 1 2 4 3 4 3 6 8 10 11 12 13 13 12 12 12 12 13 13 12 12 11 11 11 10 9 9 8 8 7 7 5 5 4 4 3 2 1 1 2 3 3 5 5 6
5 3 3 4 3 1 3 1 2 5 7 8 9 11 12 12 13 13 12 11 10 10 10 11 11 10 10 10 9 8 9 9 8 8 9 8 7 7 6 5 4 3 2 2 2 2 2 3 4
1 0 1 0 3 3 0 4 4 4 5 7 8 9 10 11 11 11 11 10 10 10 10 10 10 11 11 11 10 10 10 10 10 9 10 9 8 8 8 6 6 6 4 3 2 2 2 2 2
3 3 3 3 2 2 1 4 4 1 2 4 6 7 9 9 9 9 10 10 10 10 10 10 10 11 10 10 10 11 10 10 10 10 10 9 9 9 8 7 7 7 6 5 3 2 2 2 3
Wind_Direction
205 187 196 220 202 91 78 75 72 72 60 54 51 35 22 26 354 42 94 151 143 146 144 148 150 148 145 140 139 138 137 137 138 141 144 146 147 150 153 157 159 165 167 162 157 158 152 146 138
177 167 220 236 99 89 79 69 67 58 67 72 62 47 57 60 41 76 129 147 150 147 149 149 147 151 149 147 147 145 142 142 142 143 145 145 145 147 148 146 146 149 152 153 150 152 153 146 135
171 213 259 99 72 72 77 65 70 75 56 39 56 47 40 45 67 107 129 150 151 150 150 139 153 155 155 154 154 149 147 147 148 147 147 147 145 144 140 135 132 130 133 139 138 141 141 134 126
195 221 227 97 82 65 59 75 78 80 60 43 47 68 68 45 50 109 137 153 153 155 154 145 160 160 161 162 161 156 157 156 156 154 150 148 146 146 143 140 135 128 123 122 122 129 130 127 122
241 240 118 97 85 68 54 59 71 52 53 43 45 69 74 55 76 119 144 154 159 160 159 152 164 168 171 172 170 169 169 168 168 167 163 163 159 156 153 147 138 133 125 118 116 127 127 125 122
235 210 110 90 87 80 67 67 72 59 61 47 43 65 74 82 100 126 141 158 163 164 169 157 164 180 182 183 183 182 181 180 180 179 176 176 174 168 162 156 146 138 129 122 115 123 127 125 123
291 109 102 101 100 79 51 54 50 52 55 39 23 64 95 96 94 118 131 151 165 171 185 186 177 183 190 200 201 197 194 193 190 188 186 185 183 180 175 170 163 153 144 136 126 126 130 130 131
338 136 131 117 107 75 51 69 48 39 53 40 21 39 81 103 109 110 113 138 166 189 205 213 206 204 202 198 200 211 211 208 202 196 195 193 192 194 191 193 173 171 164 153 140 135 135 133 131
273 184 131 105 91 72 50 68 48 55 63 53 43 37 63 99 109 105 104 113 154 235 246 243 245 234 243 243 204 211 219 218 213 204 200 205 211 199 193 192 157 184 182 172 162 154 145 154 149
328 109 81 64 70 88 62 52 27 59 47 32 33 46 67 79 75 64 49 35 12 314 280 274 268 258 250 250 244 234 230 218 221 221 206 212 223 214 215 139 175 198 196 190 185 174 181 214 183
55 73 89 72 79 96 89 65 37 52 41 18 20 40 52 55 50 43 35 26 14 0 350 317 296 279 268 254 255 250 246 239 236 236 225 224 223 216 219 190 183 196 199 204 175 200 210 211 197
87 63 68 62 74 78 77 80 60 48 43 35 44 47 50 50 46 38 33 25 16 14 5 353 335 308 284 270 260 255 249 244 240 237 237 227 225 232 223 219 211 197 201 212 216 224 205 220 199
100 95 82 84 82 83 84 82 74 49 41 46 53 51 47 45 40 36 31 26 17 10 2 356 348 339 322 299 280 271 267 263 256 246 248 233 228 235 231 224 214 220 212 199 217 225 210 222 222
99 105 99 90 91 85 82 71 58 32 33 45 48 48 46 43 37 32 27 21 14 7 359 352 348 346 331 315 296 284 284 276 274 263 254 249 237 239 237 236 222 223 219 217 217 217 206 215 217
130 119 100 68 93 124 106 62 38 20 31 42 41 42 38 35 30 26 18 11 5 359 353 349 342 346 337 322 311 297 287 287 281 270 265 258 246 245 240 242 231 221 216 216 219 217 215 214 209
179 187 132 62 32 41 222 74 35 20 30 36 29 28 24 22 18 15 8 0 355 349 344 342 339 338 335 324 305 289 281 274 272 277 274 270 260 250 247 241 241 234 225 221 210 219 212 211 214
205 239 140 95 34 50 83 90 49 30 28 29 20 13 7 4 5 2 356 350 345 340 335 333 335 331 327 320 302 284 272 263 261 261 263 269 269 261 250 244 242 235 225 225 219 210 216 220 221
307 289 113 83 59 81 95 99 70 41 29 22 13 5 0 356 355 353 347 342 336 331 327 327 326 323 322 315 307 294 279 266 254 248 244 248 256 257 252 247 243 235 219 214 218 215 216 230 229
318 291 21 86 96 85 100 98 74 43 29 18 9 3 357 351 348 348 343 338 334 331 326 322 320 322 320 315 312 310 300 290 270 251 241 236 237 239 239 240 238 229 219 211 207 205 214 219 225
285 269 137 112 103 116 121 99 75 47 29 18 7 1 356 350 346 346 343 341 336 331 325 321 322 320 316 309 303 292 292 283 277 270 254 240 233 231 232 231 230 223 218 213 206 194 204 214 220
14 325 160 145 127 135 161 146 72 55 29 22 14 4 0 355 349 345 342 340 334 332 329 323 322 315 311 308 300 296 290 280 271 265 258 248 239 232 229 231 228 223 216 214 204 198 199 199 208
156 39 282 192 202 148 252 212 75 25 21 17 11 5 1 357 352 348 345 341 338 336 331 324 322 317 315 310 300 296 289 287 289 288 276 264 251 241 231 229 228 226 219 214 212 205 203 196 195
11 339 248 215 212 180 142 269 82 24 10 8 5 2 360 358 356 354 352 347 345 341 336 329 325 321 319 314 306 297 291 288 289 285 278 263 249 245 237 229 225 222 217 216 215 207 204 202 199
293 172 150 180 210 199 26 307 58 22 360 354 357 0 360 359 358 358 357 357 355 353 348 342 337 333 334 330 322 316 313 308 307 303 296 281 254 238 228 222 220 217 213 213 213 211 207 207 203
238 234 209 196 203 109 56 327 57 21 3 353 354 358 1 1 2 360 1 0 358 359 359 355 351 348 347 347 350 343 335 329 326 325 322 322 317 281 240 213 213 211 211 212 214 214 210 207 205
10 301 309 308 8 122 166 70 74 29 9 3 7 6 7 9 8 5 4 2 360 0 1 3 4 1 355 355 359 360 0 356 356 2 8 12 8 4 12 2 195 198 200 204 210 215 212 210 210
311 33 341 314 82 176 133 124 131 37 21 16 13 13 11 11 11 12 9 8 6 5 6 7 9 9 6 6 9 12 13 17 18 19 22 25 26 27 39 52 73 98 169 194 197 208 211 212 214
15 350 261 273 276 214 147 149 36 15 9 9 11 10 9 9 9 12 12 10 7 8 9 11 12 11 11 12 15 17 17 21 22 26 28 26 29 35 41 47 58 69 81 125 149 173 185 201 204
27 74 3 20 329 303 214 99 56 6 358 355 3 5 6 6 4 7 9 10 11 14 16 15 17 18 15 15 18 23 24 23 28 31 29 28 31 37 44 45 52 58 62 75 104 123 138 154 164
23 13 308 308 90 336 323 101 96 354 343 341 352 1 4 1 360 2 8 13 15 16 18 18 19 19 18 17 23 27 27 29 32 32 29 29 33 35 37 39 47 50 52 53 60 80 119 146 161